Location: Unspecified
(41.5000°N, 0.0000°E)
Time: 17:00:58
(UTC+00:00)

Vanguard 3 - Pass Details

Date: 25 June 2019
Orbit: 508 x 3263 km, 33.3° (Epoch: 16 August)

Event Time Altitude Azimuth Distance (km) Brightness Sun altitude
Rises 12:42:07 0° 260° (W) 6,141 11.8 70.1°
Reaches altitude 10° 12:46:57 10° 256° (WSW) 4,692 11.4 69.7°
Maximum altitude 12:58:16 50° 187° (S) 1,707 10.3 68.5°
Drops below altitude 10° 13:04:40 10° 113° (ESE) 2,714 9.9 67.7°
Sets 13:06:47 0° 107° (ESE) 3,419 10.3 67.5°
